Shenandoah, IA

9:08 AM CDT on May 24, 2017 (GMT -0500)
Shenandoah Municipal

Weather History for KSDA - November, 2013

Change the Weather History Date:

Friday, November 8, 2013

  Actual Average Record
Temperature  
Mean Temperature 47 °F -  
Max Temperature 68 °F 52 °F 84 °F (1999)
Min Temperature 26 °F 31 °F -5 °F (1991)
Degree Days  
Heating Degree Days 18    
Moisture  
Dew Point 31 °F    
Average Humidity 53    
Maximum Humidity 93    
Minimum Humidity 24    
Precipitation  
Precipitation 0.00 in - - ()
Sea Level Pressure  
Sea Level Pressure 29.99 in    
Wind  
Wind Speed 11 mph (South)    
Max Wind Speed 32 mph    
Max Gust Speed 44 mph    
Visibility 10 miles    
Events      
Averages and records for this station are not official NWS values.
T = Trace of Precipitation, MM = Missing Value Source: NWS Daily Summary

Daily Weather History Graph

Daily Weather History Graph

Search for Another Location

Airport or City:

Trip Planner

Search our weather history database for the weather conditions in past years. The results will help you decide how hot, cold, wet, or windy it might be!

Date:

Astronomy

Nov. 08, 2013 Rise Set
Actual Time 7:00 AM CST 5:09 PM CST
Civil Twilight 6:31 AM CST 5:38 PM CST
Nautical Twilight 5:58 AM CST 6:11 PM CST
Astronomical Twilight 5:26 AM CST 6:43 PM CST
Moon 11:57 AM CST (11/8) 10:31 PM CST (11/8)
Length of Visible Light 11h 06m
Length of Day
10h 09m
Waxing Crescent, 33% of the Moon is Illuminated
Nov 8
Waxing Crescent
Nov 9
First Quarter
Nov 17
Full
Nov 25
Last Quarter
Dec 2
New

Hourly Weather History & Observations

Time (CST) Temp. Windchill Dew Point Humidity Pressure Visibility Wind Dir Wind Speed Gust Speed Precip Events Conditions
12:15 AM 28.4 °F - 26.6 °F 93% 30.32 in 10.0 mi Calm Calm - N/A   Clear
12:35 AM 28.4 °F - 26.6 °F 93% 30.31 in 10.0 mi Calm Calm - N/A   Clear
12:55 AM 26.6 °F - 24.8 °F 93% 30.30 in 10.0 mi Calm Calm - N/A   Clear
1:15 AM 28.4 °F - 24.8 °F 86% 30.29 in 10.0 mi Calm Calm - N/A   Clear
1:35 AM 30.2 °F 22.6 °F 24.8 °F 80% 30.28 in 10.0 mi SSE 8.1 mph - N/A   Clear
1:55 AM 33.8 °F - 24.8 °F 70% 30.27 in - Calm Calm - N/A   Clear
2:15 AM 33.8 °F 30.8 °F 24.8 °F 70% 30.26 in 10.0 mi Variable 3.5 mph - N/A   Clear
2:35 AM 33.8 °F 27.0 °F 26.6 °F 75% 30.25 in 10.0 mi SE 8.1 mph - N/A   Clear
2:55 AM 35.6 °F 29.9 °F 26.6 °F 70% 30.25 in 10.0 mi SSE 6.9 mph - N/A   Clear
3:15 AM 35.6 °F 30.7 °F 26.6 °F 70% 30.24 in 10.0 mi SSE 5.8 mph - N/A   Clear
3:35 AM 35.6 °F 29.2 °F 26.6 °F 70% 30.23 in 10.0 mi SSE 8.1 mph - N/A   Clear
3:55 AM 35.6 °F 29.2 °F 26.6 °F 70% 30.22 in 10.0 mi SE 8.1 mph 13.8 mph N/A   Clear
4:15 AM 35.6 °F 29.2 °F 26.6 °F 70% 30.21 in 10.0 mi SSE 8.1 mph - N/A   Clear
4:35 AM 35.6 °F 28.6 °F 26.6 °F 70% 30.20 in 10.0 mi SSE 9.2 mph - N/A   Clear
4:55 AM 37.4 °F 29.3 °F 26.6 °F 65% 30.20 in 10.0 mi SSE 12.7 mph - N/A   Clear
5:15 AM 37.4 °F 29.3 °F 26.6 °F 65% 30.19 in 10.0 mi SE 12.7 mph - N/A   Clear
5:35 AM 37.4 °F 29.8 °F 26.6 °F 65% 30.17 in 10.0 mi SE 11.5 mph - N/A   Clear
5:55 AM 37.4 °F 31.4 °F 26.6 °F 65% 30.16 in 10.0 mi SE 8.1 mph 13.8 mph N/A   Clear
6:15 AM 39.2 °F 31.2 °F 26.6 °F 61% 30.14 in 10.0 mi SE 13.8 mph - N/A   Clear
6:35 AM 39.2 °F 30.5 °F 26.6 °F 61% 30.13 in 10.0 mi SE 16.1 mph 23.0 mph N/A   Clear
6:55 AM 39.2 °F 30.2 °F 26.6 °F 61% 30.12 in 10.0 mi SSE 17.3 mph - N/A   Clear
7:15 AM 41.0 °F 32.5 °F 26.6 °F 57% 30.12 in 10.0 mi SE 17.3 mph 23.0 mph N/A   Clear
7:35 AM 41.0 °F 32.8 °F 28.4 °F 61% 30.10 in 10.0 mi SSE 16.1 mph 23.0 mph N/A   Clear
7:55 AM 41.0 °F 32.8 °F 28.4 °F 61% 30.09 in 10.0 mi SE 16.1 mph 25.3 mph N/A   Clear
8:15 AM 42.8 °F 34.8 °F 28.4 °F 57% 30.09 in 10.0 mi SSE 17.3 mph 24.2 mph N/A   Clear
8:35 AM 42.8 °F 34.5 °F 28.4 °F 57% 30.08 in 10.0 mi SSE 18.4 mph 26.5 mph N/A   Clear
8:55 AM 44.6 °F 36.4 °F 28.4 °F 53% 30.05 in 10.0 mi SSE 20.7 mph - N/A   Clear
9:15 AM 46.4 °F 39.2 °F 30.2 °F 53% 30.04 in 10.0 mi SSE 18.4 mph 28.8 mph N/A   Clear
9:35 AM 48.2 °F - 30.2 °F 50% 30.02 in 10.0 mi SSE 23.0 mph 32.2 mph N/A   Clear
9:55 AM 48.2 °F - 32.0 °F 54% 30.00 in 10.0 mi SSE 25.3 mph 33.4 mph N/A   Clear
10:15 AM 50.0 °F - 32.0 °F 50% 29.98 in 10.0 mi SSE 19.6 mph 29.9 mph N/A   Clear
10:35 AM 50.0 °F - 32.0 °F 50% 29.95 in 10.0 mi SSE 21.9 mph 29.9 mph N/A   Clear
10:55 AM 53.6 °F - 33.8 °F 47% 29.96 in 10.0 mi SSE 17.3 mph 29.9 mph N/A   Clear
11:15 AM 57.2 °F - 32.0 °F 38% 29.92 in 10.0 mi South 29.9 mph 41.4 mph N/A   Clear
11:35 AM 57.2 °F - 32.0 °F 38% 29.88 in 10.0 mi South 27.6 mph 40.3 mph N/A   Clear
11:55 AM 59.0 °F - 33.8 °F 39% 29.87 in 10.0 mi South 24.2 mph 40.3 mph N/A   Clear
12:15 PM 60.8 °F - 33.8 °F 36% 29.85 in 10.0 mi South 28.8 mph 38.0 mph N/A   Clear
12:35 PM 62.6 °F - 32.0 °F 32% 29.83 in 10.0 mi South 29.9 mph 38.0 mph N/A   Clear
12:55 PM 62.6 °F - 32.0 °F 32% 29.81 in 10.0 mi South 27.6 mph 38.0 mph N/A   Clear
1:15 PM 62.6 °F - 32.0 °F 32% 29.82 in 10.0 mi South 20.7 mph 34.5 mph N/A   Clear
1:35 PM 60.8 °F - 32.0 °F 34% 29.81 in 10.0 mi South 31.1 mph 43.7 mph N/A   Clear
1:55 PM 64.4 °F - 32.0 °F 30% 29.79 in 10.0 mi SSW 25.3 mph 35.7 mph N/A   Clear
2:15 PM 66.2 °F - 32.0 °F 28% 29.77 in 10.0 mi SSW 32.2 mph 40.3 mph N/A   Clear
2:35 PM 66.2 °F - 32.0 °F 28% 29.78 in 10.0 mi SSW 20.7 mph 32.2 mph N/A   Clear
2:55 PM 66.2 °F - 32.0 °F 28% 29.78 in 10.0 mi South 19.6 mph 32.2 mph N/A   Clear
3:15 PM 68.0 °F - 30.2 °F 24% 29.77 in 10.0 mi SSW 23.0 mph 33.4 mph N/A   Clear
3:35 PM 66.2 °F - 32.0 °F 28% 29.78 in 10.0 mi SSW 25.3 mph 33.4 mph N/A   Clear
3:55 PM 66.2 °F - 32.0 °F 28% 29.78 in 10.0 mi SSW 26.5 mph 34.5 mph N/A   Clear
4:15 PM 64.4 °F - 32.0 °F 30% 29.78 in 10.0 mi SW 20.7 mph 27.6 mph N/A   Clear
4:35 PM 64.4 °F - 33.8 °F 32% 29.79 in 10.0 mi SW 18.4 mph 26.5 mph N/A   Clear
4:55 PM 62.6 °F - 33.8 °F 34% 29.79 in 10.0 mi SW 18.4 mph 27.6 mph N/A   Clear
5:15 PM 62.6 °F - 33.8 °F 34% 29.79 in 10.0 mi SW 17.3 mph - N/A   Clear
5:35 PM 62.6 °F - 33.8 °F 34% 29.80 in 10.0 mi SSW 15.0 mph 23.0 mph N/A   Clear
5:55 PM 60.8 °F - 33.8 °F 36% 29.80 in 10.0 mi SSW 13.8 mph 19.6 mph N/A   Clear
6:15 PM 60.8 °F - 33.8 °F 36% 29.81 in 10.0 mi SSW 15.0 mph 23.0 mph N/A   Clear
6:35 PM 60.8 °F - 35.6 °F 39% 29.82 in 10.0 mi SSW 11.5 mph - N/A   Clear
6:55 PM 60.8 °F - 35.6 °F 39% 29.83 in 10.0 mi SW 16.1 mph 23.0 mph N/A   Clear
7:15 PM 59.0 °F - 35.6 °F 42% 29.84 in 10.0 mi SW 15.0 mph 20.7 mph N/A   Clear
7:35 PM 59.0 °F - 35.6 °F 42% 29.84 in 10.0 mi SW 13.8 mph 20.7 mph N/A   Clear
7:55 PM 55.4 °F - 35.6 °F 47% 29.84 in 10.0 mi SW 8.1 mph - N/A   Clear
8:15 PM 53.6 °F - 35.6 °F 51% 29.85 in 10.0 mi SW 8.1 mph - N/A   Clear
8:35 PM 51.8 °F - 35.6 °F 54% 29.86 in 10.0 mi WSW 6.9 mph - N/A   Clear
8:55 PM 50.0 °F - 35.6 °F 58% 29.87 in 10.0 mi SW 9.2 mph - N/A   Clear
9:15 PM 48.2 °F - 35.6 °F 62% 29.88 in 10.0 mi SW 8.1 mph - N/A   Clear
9:35 PM 46.4 °F 41.9 °F 35.6 °F 66% 29.89 in 10.0 mi WSW 9.2 mph - N/A   Clear
9:55 PM 48.2 °F - 35.6 °F 62% 29.90 in 10.0 mi SW 8.1 mph - N/A   Clear
10:15 PM 48.2 °F - 35.6 °F 62% 29.91 in 10.0 mi SW 9.2 mph - N/A   Clear
10:35 PM 46.4 °F 42.4 °F 35.6 °F 66% 29.92 in 10.0 mi SW 8.1 mph - N/A   Clear
10:55 PM 46.4 °F 42.9 °F 35.6 °F 66% 29.92 in 10.0 mi SW 6.9 mph - N/A   Clear
11:15 PM 44.6 °F 39.7 °F 35.6 °F 71% 29.93 in 10.0 mi SSW 9.2 mph - N/A   Clear
11:35 PM 44.6 °F 40.7 °F 35.6 °F 71% 29.93 in 10.0 mi SSW 6.9 mph - N/A   Clear
11:55 PM 46.4 °F 43.5 °F 35.6 °F 66% 29.93 in 10.0 mi South 5.8 mph - N/A   Clear